This demonstration page uses our WeatherBlox Daily Observations layout. Learn more.

Left ArrowRight Arrow

38.20091, -84.87328

Hourly Observations for January 29, 2016

Temp ( °F °C ) Dew Point ( °F °C ) Humidity (%) Winds ( mph kmh ) Pressure ( in mb ) Visibility ( mi km ) Precip ( " mm )
12:53 am 00:53 Cloudy 42 5.6 28 -2.2 58 58 WNW 12 19 29.78 1008 10 16 0.00 0.00
1:53 am 01:53 Cloudy 40 4.4 28 -2.2 63 63 WNW 8 13 29.78 1008 10 16 0.00 0.00
2:53 am 02:53 Cloudy 39 3.9 27 -2.8 62 62 WNW 7 11 29.79 1009 10 16 0.00 0.00
3:53 am 03:53 Cloudy 37 2.8 26 -3.3 65 65 WNW 9 15 29.80 1009 10 16 0.00 0.00
4:22 am 04:22 Cloudy 37 2.8 27 -2.8 67 67 WNW 7 11 29.83 1010 10 16 0.00 0.00
4:39 am 04:39 Cloudy 36 2.2 27 -2.8 70 70 VRB 5 7 29.83 1010 10 16 0.00 0.00
4:53 am 04:53 Cloudy 36 2.2 27 -2.8 70 70 VRB 6 9 29.82 1010 10 16 0.00 0.00
5:53 am 05:53 Cloudy 36 2.2 27 -2.8 70 70 W 7 11 29.85 1011 10 16 0.00 0.00
6:53 am 06:53 Cloudy 35 1.7 27 -2.8 72 72 WNW 8 13 29.88 1012 10 16 0.00 0.00
7:53 am 07:53 Cloudy 34 1.1 27 -2.8 76 76 WNW 8 13 29.91 1013 10 16 0.00 0.00
8:50 am 08:50 Cloudy 34 1 27 -3 75 75 WNW 6 9 29.97 1015 10 16 0.00 0.00
8:53 am 08:53 Cloudy 34 1.1 26 -3.3 73 73 WNW 6 9 29.95 1014 10 16 0.00 0.00
9:15 am 09:15 Cloudy 35 1.7 26 -3.3 70 70 NW 6 9 29.97 1015 10 16 0.00 0.00
9:53 am 09:53 Cloudy 35 1.7 21 -6.1 57 57 NNW 10 17 29.98 1015 10 16 0.00 0.00
10:53 am 10:53 Mostly Cloudy 36 2.2 20 -6.7 52 52 NNW 14 22 30.01 1016 10 16 0.00 0.00
11:53 am 11:53 Mostly Cloudy 38 3.3 21 -6.1 51 51 W 9 15 30.01 1016 10 16 0.00 0.00
12:53 pm 12:53 Mostly Cloudy 39 3.9 22 -5.6 50 50 WNW 8 13 30.01 1016 10 16 0.00 0.00
1:53 pm 13:53 Partly Cloudy 40 4.4 22 -5.6 49 49 NNW 9 15 29.99 1016 10 16 0.00 0.00
2:53 pm 14:53 Sunny 41 5 21 -6.1 45 45 VRB 3 6 29.99 1016 10 16 0.00 0.00
3:53 pm 15:53 Sunny 42 5.6 21 -6.1 43 43 Calm 29.99 1016 10 16 0.00 0.00
4:53 pm 16:53 Sunny 41 5 22 -5.6 47 47 Calm 29.98 1015 10 16 0.00 0.00
5:53 pm 17:53 Sunny 38 3.3 21 -6.1 51 51 WSW 3 6 29.99 1016 10 16 0.00 0.00
6:53 pm 18:53 Clear 32 0 22 -5.6 66 66 Calm 30.01 1016 10 16 0.00 0.00
7:53 pm 19:53 Clear 30 -1.1 21 -6.1 69 69 Calm 30.02 1017 10 16 0.00 0.00
8:53 pm 20:53 Clear 30 -1.1 22 -5.6 72 72 ESE 3 6 30.01 1016 10 16 0.00 0.00
9:53 pm 21:53 Clear 29 -1.7 21 -6.1 72 72 Calm 30.00 1016 10 16 0.00 0.00
10:53 pm 22:53 Clear 30 -1.1 21 -6.1 69 69 SSE 3 6 29.99 1016 10 16 0.00 0.00
11:53 pm 23:53 Clear 30 -1.1 22 -5.6 72 72 SSW 6 9 29.99 1016 10 16 0.00 0.00

Powered by AerisWeather